Hoquiam, WA
on Friday, January 18, 2013

Friday
Previous Day Next Day
Daily Summary
 ActualAverageRecord
Temperature
Mean Temperature °F 43°F  
Max Temperature 46°F 47°F 58°F (1981)
Min Temperature 27°F 38°F 25°F (1957)
Degree Days
Heating Degree Days 28 22  
Month to date heating degree days 407  
Cooling Degree Days 0 0  
Month to date cooling degree days 0  
Year to date cooling degree days 0  
Moisture
Dew Point 32°F   
Average Humidity 90    
Maximum Humidity 100    
Minimum Humidity 73    
Precipitation
Precipitation 0.00 in 0.36 in 3.49 in (1986)
Month to date precipitation 6.34  
Year to date precipitation 6.34  
Wind
Wind Speed 7 mph   
Max Wind Speed 13 mph   
Max Gust Speed mph   
Visibility 10 miles   
Events     

Key: T is trace of precipitation, MM is missing value
Source: NWS Daily Summary
Time(PST)TemperatureDew PointHumidity Pressure Visibility Wind DirectionWind SpeedGust SpeedPrecipitationEvents Conditions
12:35 AM 30.2°F 30.2°F 100% 30.28 in 10.0 miles ENE 6.9 mph - N/A   Scattered Clouds
12:53 AM 30.9°F 30.0°F 96% 30.29 in 8.0 miles NE 8.1 mph - N/A   Clear
1:53 AM 30.0°F 28.9°F 96% 30.28 in 10.0 miles ENE 8.1 mph - N/A   Clear
2:53 AM 30.0°F 28.9°F 96% 30.28 in 10.0 miles ENE 6.9 mph - N/A   Clear
3:53 AM 28.9°F 27.0°F 92% 30.26 in 10.0 miles ENE 5.8 mph - N/A   Clear
4:53 AM 28.0°F 27.0°F 96% 30.25 in 10.0 miles ENE 3.5 mph - N/A   Clear
5:53 AM 28.0°F 27.0°F 96% 30.25 in 7.0 miles NE 3.5 mph - N/A   Clear
6:53 AM 28.0°F 27.0°F 96% 30.25 in 10.0 miles ENE 6.9 mph - N/A   Clear
7:53 AM 27.0°F 26.1°F 96% 30.26 in 6.0 miles ENE 5.8 mph - N/A   Clear
8:53 AM 30.0°F 28.0°F 92% 30.27 in 7.0 miles ENE 5.8 mph - N/A   Clear
9:53 AM 32.0°F 30.0°F 92% 30.28 in 10.0 miles ENE 6.9 mph - N/A   Clear
10:53 AM 35.1°F 33.1°F 92% 30.29 in 10.0 miles East 8.1 mph - N/A   Clear
11:53 AM 39.0°F 36.0°F 89% 30.27 in 10.0 miles East 8.1 mph - N/A   Clear
12:53 PM 44.1°F 37.0°F 76% 30.26 in 10.0 miles ENE 5.8 mph - N/A   Clear
1:53 PM 45.0°F 39.0°F 80% 30.25 in 10.0 miles East 8.1 mph - N/A   Clear
2:53 PM 46.0°F 39.9°F 79% 30.26 in 10.0 miles ENE 5.8 mph - N/A   Clear
3:53 PM 46.0°F 39.0°F 76% 30.26 in 10.0 miles ENE 5.8 mph - N/A   Clear
4:53 PM 44.1°F 36.0°F 73% 30.26 in 10.0 miles NE 8.1 mph - N/A   Clear
5:53 PM 37.9°F 33.1°F 83% 30.27 in 10.0 miles NE 10.4 mph - N/A   Clear
6:53 PM 34.0°F 30.9°F 89% 30.27 in 10.0 miles NE 9.2 mph - N/A   Clear
7:53 PM 33.1°F 30.9°F 92% 30.28 in 10.0 miles ENE 9.2 mph - N/A   Clear
8:18 PM 33.8°F 32.0°F 93% 30.27 in 10.0 miles ENE 10.4 mph - N/A   Scattered Clouds
8:28 PM 33.8°F 32.0°F 93% 30.27 in 10.0 miles NE 11.5 mph - N/A   Mostly Cloudy
8:53 PM 34.0°F 32.0°F 92% 30.28 in 10.0 miles ENE 11.5 mph - N/A   Overcast
9:53 PM 34.0°F 32.0°F 92% 30.30 in 10.0 miles NE 12.7 mph - N/A   Overcast
10:53 PM 33.1°F 32.0°F 96% 30.29 in 10.0 miles ENE 9.2 mph - N/A   Mostly Cloudy
11:53 PM 33.1°F 32.0°F 96% 30.29 in 10.0 miles ENE 10.4 mph - N/A   Overcast
Moon Phase
Jan. 18 Jan. 18 Jan. 26 Feb. 03 Feb. 10
Sunrise:07:54 AM (PST) Moon Rise:11:03 AM (PST)1/18
Sunset:04:58 PM (PST) Moon Set:12:25 AM (PST)1/18

Copyright © 2014 The Weather Underground, Inc.